Weather at Fentress Naval Auxiliary Landing Field

Public forecast

Using degrees Fahrenheit for public forecast. Weather courtesy of forecast.io.

Current aviation weather report (METAR) for Fentress Naval Auxiliary Landing Field

Retrieved 2021/04/15 08:23 UTC (19 minutes ago):

KNFE 150823Z AUTO 32004KT 10SM OVC005 16/14 A2975 RMK AO2 RAE01 CIG 002V008 P0000 T01560144

Closest aviation forecast (TAF) to Fentress Naval Auxiliary Landing Field

Forecast is more than 12 hours old.

Closest forecast is Oceana Naval Air Station, 9.0 nm (16.7 km) NNE. Retrieved 2020-05-12 23:47 UTC (11 months ago):

TAF KNTU 112000Z 1123/1223 33010KT 9999 SCT080 QNH2990INS TEMPO 1123/1205 VRB06KT BKN080 FM121800 28006KT 9999 BKN050 QNH3017INS T08/1210Z T16/1219Z FN20051